Weather History for Fayetteville, AR

Change the Weather History Date:

Tuesday, August 27, 2013

  Actual Average Record
Temperature  
Mean Temperature 76 °F 76 °F  
Max Temperature 91 °F 88 °F 100 °F (1963)
Min Temperature 61 °F 64 °F 50 °F (2010)
Cooling Degree Days 11 11  
Month to date cooling degree days 283 336  
Year to date cooling degree days 1064 1085  
Since 1 June cooling degree days 928 972  
Growing Degree Days 26 (Base 50)    
Moisture  
Dew Point 64 °F    
Average Humidity 69    
Maximum Humidity 100    
Minimum Humidity 38    
Precipitation  
Precipitation 0.00 in 0.11 in 1.33 in (2006)
Month to date precipitation 2.82 2.79  
Year to date precipitation 31.07 31.44  
Sea Level Pressure  
Sea Level Pressure 30.09 in    
Wind  
Wind Speed 3 mph (South)    
Max Wind Speed 13 mph    
Max Gust Speed 16 mph    
Visibility 8 miles    
Events      
T = Trace of Precipitation, MM = Missing Value Source: NWS Daily Summary

Daily Weather History Graph

Daily Weather History Graph

Search for Another Location

Airport:

Trip Planner

Search our weather history database for the weather conditions in past years. The results will help you decide how hot, cold, wet, or windy it might be!

Date:

Astronomy

Aug. 27, 2013 Rise Set
Actual Time 6:44 AM CDT 7:50 PM CDT
Civil Twilight 6:18 AM CDT 8:17 PM CDT
Nautical Twilight 5:46 AM CDT 8:48 PM CDT
Astronomical Twilight 5:14 AM CDT 9:21 PM CDT
Moon 11:58 PM CDT (8/27) 1:29 PM CDT (8/27)
Length of Visible Light 13h 58m
Length of Day
13h 06m
Waning Gibbous, 57% of the Moon is Illuminated
Aug 27
Waning Gibbous
Aug 28
Last Quarter
Sep 5
New
Sep 12
First Quarter
Sep 19
Full

Hourly Weather History & Observations

Time (CDT) Temp. Heat Index Dew Point Humidity Pressure Visibility Wind Dir Wind Speed Gust Speed Precip Events Conditions
12:53 AM 68.0 °F - 66.9 °F 96% 30.11 in 10.0 mi Calm Calm - N/A   Clear
1:53 AM 64.9 °F - 64.0 °F 97% 30.10 in 9.0 mi Calm Calm - N/A   Clear
2:53 AM 64.9 °F - 64.9 °F 100% 30.10 in 3.0 mi Calm Calm - N/A   Clear
3:00 AM 64.4 °F - 62.6 °F 94% 30.14 in 1.5 mi Calm Calm - N/A   Clear
3:04 AM 64.4 °F - 64.4 °F 100% 30.14 in 4.0 mi Calm Calm - N/A   Clear
3:53 AM 63.0 °F - 63.0 °F 100% 30.10 in 3.0 mi Calm Calm - N/A   Clear
4:07 AM 64.4 °F - 62.6 °F 94% 30.14 in 0.8 mi Calm Calm - N/A   Clear
4:17 AM 64.4 °F - 64.4 °F 100% 30.14 in 2.5 mi Calm Calm - N/A   Clear
4:24 AM 62.6 °F - 62.6 °F 100% 30.14 in 9.0 mi Calm Calm - N/A   Clear
4:53 AM 63.0 °F - 63.0 °F 100% 30.09 in 8.0 mi Calm Calm - N/A   Clear
5:53 AM 63.0 °F - 62.1 °F 97% 30.11 in 7.0 mi Calm Calm - N/A   Clear
6:53 AM 62.1 °F - 61.0 °F 96% 30.12 in 9.0 mi Calm Calm - N/A   Clear
7:53 AM 64.9 °F - 64.0 °F 97% 30.12 in 10.0 mi ESE 3.5 mph - N/A   Clear
8:53 AM 73.9 °F - 66.9 °F 79% 30.13 in 10.0 mi Calm Calm - N/A   Clear
9:53 AM 82.9 °F 85.0 °F 66.0 °F 56% 30.12 in 10.0 mi South 6.9 mph - N/A   Clear
10:53 AM 86.0 °F 88.2 °F 66.0 °F 51% 30.12 in 10.0 mi SW 8.1 mph - N/A   Clear
11:53 AM 86.0 °F 86.3 °F 62.1 °F 44% 30.12 in 10.0 mi SSW 5.8 mph - N/A   Partly Cloudy
12:53 PM 86.0 °F 86.1 °F 61.0 °F 43% 30.11 in 10.0 mi SW 8.1 mph - N/A   Mostly Cloudy
1:53 PM 89.1 °F 89.0 °F 61.0 °F 39% 30.08 in 10.0 mi South 8.1 mph - N/A   Clear
2:53 PM 89.1 °F 88.8 °F 60.1 °F 38% 30.06 in 10.0 mi South 5.8 mph - N/A   Partly Cloudy
3:53 PM 90.0 °F 90.3 °F 62.1 °F 39% 30.04 in 10.0 mi South 11.5 mph - N/A   Mostly Cloudy
4:53 PM 88.0 °F 87.9 °F 61.0 °F 40% 30.04 in 10.0 mi South 9.2 mph - N/A   Clear
5:53 PM 88.0 °F 87.9 °F 61.0 °F 40% 30.04 in 10.0 mi South 6.9 mph - N/A   Scattered Clouds
6:53 PM 84.0 °F 84.9 °F 63.0 °F 49% 30.03 in 10.0 mi SSW 5.8 mph - N/A   Clear
7:53 PM 79.0 °F - 66.0 °F 64% 30.04 in 10.0 mi Calm Calm - N/A   Clear
8:53 PM 73.9 °F - 66.0 °F 76% 30.05 in 10.0 mi Calm Calm - N/A   Clear
9:53 PM 73.0 °F - 66.0 °F 79% 30.06 in 10.0 mi Calm Calm - N/A   Partly Cloudy
10:53 PM 71.1 °F - 66.0 °F 84% 30.05 in 10.0 mi Calm Calm - N/A   Clear
11:53 PM 68.0 °F - 66.0 °F 93% 30.06 in 10.0 mi Calm Calm - N/A   Clear